Year,Month,Day,Hour,Minute,Value (Times are PST for temperature in C)
2017,03,25,03,40,4.90
2017,03,25,03,41,4.90
2017,03,25,03,42,4.90
2017,03,25,03,43,4.90
2017,03,25,03,44,4.90
2017,03,25,03,45,4.90
2017,03,25,03,46,4.80
2017,03,25,03,47,4.80
2017,03,25,03,48,4.70
2017,03,25,03,49,4.70
2017,03,25,03,50,4.70
2017,03,25,03,51,4.60
2017,03,25,03,52,4.50
2017,03,25,03,53,4.50
2017,03,25,03,54,4.40
2017,03,25,03,55,4.40
2017,03,25,03,56,4.30
2017,03,25,03,57,4.20
2017,03,25,03,58,4.20
2017,03,25,03,59,4.10
2017,03,25,04,00,4.10
2017,03,25,04,01,4.10
2017,03,25,04,02,4.00
2017,03,25,04,03,4.00
2017,03,25,04,04,4.00
2017,03,25,04,05,4.00
2017,03,25,04,06,4.00
2017,03,25,04,07,3.90
2017,03,25,04,08,3.90
2017,03,25,04,09,3.90
2017,03,25,04,10,3.90
2017,03,25,04,11,3.90
2017,03,25,04,12,3.80
2017,03,25,04,13,3.80
2017,03,25,04,14,3.80
2017,03,25,04,15,3.70
2017,03,25,04,16,3.70
2017,03,25,04,17,3.70
2017,03,25,04,18,3.60
2017,03,25,04,19,3.60
2017,03,25,04,20,3.60
2017,03,25,04,21,3.50
2017,03,25,04,22,3.50
2017,03,25,04,23,3.50
2017,03,25,04,24,3.50
2017,03,25,04,25,3.50
2017,03,25,04,26,3.60
2017,03,25,04,27,3.60
2017,03,25,04,28,3.60
2017,03,25,04,29,3.60
2017,03,25,04,30,3.70
2017,03,25,04,31,3.70
2017,03,25,04,32,3.70
2017,03,25,04,33,3.70
2017,03,25,04,34,3.70
2017,03,25,04,35,3.60
2017,03,25,04,36,3.60
2017,03,25,04,37,3.60
2017,03,25,04,38,3.50
2017,03,25,04,39,3.60
2017,03,25,04,40,3.50
2017,03,25,04,41,3.50
2017,03,25,04,42,3.40
2017,03,25,04,43,3.40
2017,03,25,04,44,3.30
2017,03,25,04,45,3.30
2017,03,25,04,46,3.20
2017,03,25,04,47,3.20
2017,03,25,04,48,3.20
2017,03,25,04,49,3.20
2017,03,25,04,50,3.20
2017,03,25,04,51,3.10
2017,03,25,04,52,3.10
2017,03,25,04,53,3.10
2017,03,25,04,54,3.10
2017,03,25,04,55,3.10
2017,03,25,04,56,3.10
2017,03,25,04,57,3.20
2017,03,25,04,58,3.20
2017,03,25,04,59,3.20
2017,03,25,05,00,3.20
2017,03,25,05,01,3.20
2017,03,25,05,02,3.20
2017,03,25,05,03,3.10
2017,03,25,05,04,3.10
2017,03,25,05,05,3.00
2017,03,25,05,06,3.00
2017,03,25,05,07,3.00
2017,03,25,05,08,2.90
2017,03,25,05,09,2.90
2017,03,25,05,10,2.90
2017,03,25,05,11,2.90
2017,03,25,05,12,2.90
2017,03,25,05,13,2.90
2017,03,25,05,14,2.90
2017,03,25,05,15,2.90
2017,03,25,05,16,2.90
2017,03,25,05,17,2.90
2017,03,25,05,18,2.90
2017,03,25,05,19,2.80
2017,03,25,05,20,2.90
2017,03,25,05,21,2.90
2017,03,25,05,22,2.90
2017,03,25,05,23,2.90
2017,03,25,05,24,2.90
2017,03,25,05,25,2.90
2017,03,25,05,26,2.90
2017,03,25,05,27,2.90
2017,03,25,05,28,2.90
2017,03,25,05,29,2.90
2017,03,25,05,30,2.90
2017,03,25,05,31,2.90
2017,03,25,05,32,2.90
2017,03,25,05,33,2.90
2017,03,25,05,34,2.90
2017,03,25,05,35,2.90
2017,03,25,05,36,2.90
2017,03,25,05,37,2.90
2017,03,25,05,38,2.90
2017,03,25,05,39,2.80
2017,03,25,05,40,2.80
2017,03,25,05,41,2.90
2017,03,25,05,42,2.90
2017,03,25,05,43,2.90
2017,03,25,05,44,2.90
2017,03,25,05,45,2.90
2017,03,25,05,46,2.90
2017,03,25,05,47,3.00
2017,03,25,05,48,3.00
2017,03,25,05,49,3.10
2017,03,25,05,50,3.10
2017,03,25,05,51,3.10
2017,03,25,05,52,3.10
2017,03,25,05,53,3.10
2017,03,25,05,54,3.10
2017,03,25,05,55,3.10
2017,03,25,05,56,3.20
2017,03,25,05,57,3.20
2017,03,25,05,58,3.20
2017,03,25,05,59,3.20
2017,03,25,06,00,3.20
2017,03,25,06,01,3.30
2017,03,25,06,02,3.30
2017,03,25,06,03,3.30
2017,03,25,06,04,3.30
2017,03,25,06,05,3.30
2017,03,25,06,06,3.20
2017,03,25,06,07,3.10
2017,03,25,06,08,3.10
2017,03,25,06,09,3.00
2017,03,25,06,10,3.00
2017,03,25,06,11,2.90
2017,03,25,06,12,2.90
2017,03,25,06,13,2.90
2017,03,25,06,14,2.90
2017,03,25,06,15,2.90
2017,03,25,06,16,2.90
2017,03,25,06,17,3.00
2017,03,25,06,18,3.00
2017,03,25,06,19,3.00
2017,03,25,06,20,2.90
2017,03,25,06,21,2.90
2017,03,25,06,22,2.90
2017,03,25,06,23,2.80
2017,03,25,06,24,2.80
2017,03,25,06,25,2.70
2017,03,25,06,26,2.70
2017,03,25,06,27,2.70
2017,03,25,06,28,2.60
2017,03,25,06,29,2.60
2017,03,25,06,30,2.60
2017,03,25,06,31,2.60
2017,03,25,06,32,2.60
2017,03,25,06,33,2.60
2017,03,25,06,34,2.70
2017,03,25,06,35,2.70
2017,03,25,06,36,2.70
2017,03,25,06,37,2.70
2017,03,25,06,38,2.80
2017,03,25,06,39,2.90
2017,03,25,06,40,2.90
2017,03,25,06,41,3.00
2017,03,25,06,42,3.00
2017,03,25,06,43,3.00
2017,03,25,06,44,3.00
2017,03,25,06,45,3.00
2017,03,25,06,46,2.90
2017,03,25,06,47,2.90
2017,03,25,06,48,2.80
2017,03,25,06,49,2.70
2017,03,25,06,50,2.70
2017,03,25,06,51,2.60
2017,03,25,06,52,2.60
2017,03,25,06,53,2.50
2017,03,25,06,54,2.50
2017,03,25,06,55,2.50
2017,03,25,06,56,2.50
2017,03,25,06,57,2.40
2017,03,25,06,58,2.40
2017,03,25,06,59,2.30
2017,03,25,07,00,2.30
2017,03,25,07,01,2.20
2017,03,25,07,02,2.20
2017,03,25,07,03,2.20
2017,03,25,07,04,2.10
2017,03,25,07,05,2.10
2017,03,25,07,06,2.00
2017,03,25,07,07,2.00
2017,03,25,07,08,1.90
2017,03,25,07,09,1.90
2017,03,25,07,10,1.90
2017,03,25,07,11,1.90
2017,03,25,07,12,1.80
2017,03,25,07,13,1.80
2017,03,25,07,14,1.80
2017,03,25,07,15,1.70
2017,03,25,07,16,1.70
2017,03,25,07,17,1.70
2017,03,25,07,18,1.70
2017,03,25,07,19,1.60
2017,03,25,07,20,1.60
2017,03,25,07,21,1.60
2017,03,25,07,22,1.60
2017,03,25,07,23,1.50
2017,03,25,07,24,1.50
2017,03,25,07,25,1.40
2017,03,25,07,26,1.40
2017,03,25,07,27,1.40
2017,03,25,07,28,1.50
2017,03,25,07,29,1.40
2017,03,25,07,30,1.40
2017,03,25,07,31,1.50
2017,03,25,07,32,1.40
2017,03,25,07,33,1.50
2017,03,25,07,34,1.50
2017,03,25,07,35,1.50
2017,03,25,07,36,1.50
2017,03,25,07,37,1.40
2017,03,25,07,38,1.40
2017,03,25,07,39,1.30
2017,03,25,07,40,1.30
2017,03,25,07,41,1.30
2017,03,25,07,42,1.30
2017,03,25,07,43,1.30
2017,03,25,07,44,1.40
2017,03,25,07,45,1.40
2017,03,25,07,46,1.40
2017,03,25,07,47,1.40
2017,03,25,07,48,1.40
2017,03,25,07,49,1.40
2017,03,25,07,50,1.40
2017,03,25,07,51,1.40
2017,03,25,07,52,1.40
2017,03,25,07,53,1.40
2017,03,25,07,54,1.40
2017,03,25,07,55,1.40
2017,03,25,07,56,1.40
2017,03,25,07,57,1.40
2017,03,25,07,58,1.40
2017,03,25,07,59,1.40
2017,03,25,08,00,1.40
2017,03,25,08,01,1.40
2017,03,25,08,02,1.50
2017,03,25,08,03,1.50
2017,03,25,08,04,1.60
2017,03,25,08,05,1.60
2017,03,25,08,06,1.70
2017,03,25,08,07,1.70
2017,03,25,08,08,1.80
2017,03,25,08,09,1.90
2017,03,25,08,10,2.00
2017,03,25,08,11,2.00
2017,03,25,08,12,2.20
2017,03,25,08,13,2.30
2017,03,25,08,14,2.40
2017,03,25,08,15,2.50
2017,03,25,08,16,2.60
2017,03,25,08,17,2.80
2017,03,25,08,18,2.90
2017,03,25,08,19,3.00
2017,03,25,08,20,3.20
2017,03,25,08,21,3.30
2017,03,25,08,22,3.30
2017,03,25,08,23,3.50
2017,03,25,08,24,3.60
2017,03,25,08,25,3.70
2017,03,25,08,26,3.80
2017,03,25,08,27,3.80
2017,03,25,08,28,3.90
2017,03,25,08,29,3.90
2017,03,25,08,30,4.00
2017,03,25,08,31,4.00
2017,03,25,08,32,4.10
2017,03,25,08,33,4.10
2017,03,25,08,34,4.20
2017,03,25,08,35,4.20
2017,03,25,08,36,4.30
2017,03,25,08,37,4.30
2017,03,25,08,38,4.30
2017,03,25,08,39,4.40
2017,03,25,08,40,4.50
2017,03,25,08,41,4.60
2017,03,25,08,42,4.60
2017,03,25,08,43,4.80
2017,03,25,08,44,4.80
2017,03,25,08,45,5.00
2017,03,25,08,46,5.10
2017,03,25,08,47,5.20
2017,03,25,08,48,5.20
2017,03,25,08,49,5.40
2017,03,25,08,50,5.50
2017,03,25,08,51,5.60
2017,03,25,08,52,5.70
2017,03,25,08,53,5.80
2017,03,25,08,54,5.90
2017,03,25,08,55,6.00
2017,03,25,08,56,6.10
2017,03,25,08,57,6.20
2017,03,25,08,58,6.30
2017,03,25,08,59,6.40
2017,03,25,09,00,6.50
2017,03,25,09,01,6.50
2017,03,25,09,02,6.60
2017,03,25,09,03,6.60
2017,03,25,09,04,6.60
2017,03,25,09,05,6.60
2017,03,25,09,06,6.70
2017,03,25,09,07,6.70
2017,03,25,09,08,6.70
2017,03,25,09,09,6.70
2017,03,25,09,10,6.80
2017,03,25,09,11,6.80
2017,03,25,09,12,6.80
2017,03,25,09,13,6.80
2017,03,25,09,14,6.80
2017,03,25,09,15,6.80
2017,03,25,09,16,6.80
2017,03,25,09,17,6.80
2017,03,25,09,18,6.80
2017,03,25,09,19,6.80
2017,03,25,09,20,6.70
2017,03,25,09,21,6.70
2017,03,25,09,22,6.60
2017,03,25,09,23,6.60
2017,03,25,09,24,6.60
2017,03,25,09,25,6.60
2017,03,25,09,26,6.50
2017,03,25,09,27,6.50
2017,03,25,09,28,6.50
2017,03,25,09,29,6.50
2017,03,25,09,30,6.50
2017,03,25,09,31,6.50
2017,03,25,09,32,6.50
2017,03,25,09,33,6.50
2017,03,25,09,34,6.50
2017,03,25,09,35,6.50
2017,03,25,09,36,6.50
2017,03,25,09,37,6.50
2017,03,25,09,38,6.50
2017,03,25,09,39,6.50
2017,03,25,09,40,6.50
2017,03,25,09,41,6.60
2017,03,25,09,42,6.60
2017,03,25,09,43,6.60
2017,03,25,09,44,6.70
2017,03,25,09,45,6.80
2017,03,25,09,46,6.80
2017,03,25,09,47,6.90
2017,03,25,09,48,7.00
2017,03,25,09,49,7.00
2017,03,25,09,50,7.00
2017,03,25,09,51,7.10
2017,03,25,09,52,7.10
2017,03,25,09,53,7.20
2017,03,25,09,54,7.20
2017,03,25,09,55,7.10
2017,03,25,09,56,7.10
2017,03,25,09,57,7.10
2017,03,25,09,58,7.10
2017,03,25,09,59,7.10
2017,03,25,10,00,7.10
2017,03,25,10,01,7.10
2017,03,25,10,02,7.10
2017,03,25,10,03,7.10
2017,03,25,10,04,7.10
2017,03,25,10,05,7.10
2017,03,25,10,06,7.20
2017,03,25,10,07,7.20
2017,03,25,10,08,7.20
2017,03,25,10,09,7.20
2017,03,25,10,10,7.20
2017,03,25,10,11,7.20
2017,03,25,10,12,7.20
2017,03,25,10,13,7.20
2017,03,25,10,14,7.20
2017,03,25,10,15,7.20
2017,03,25,10,16,7.20
2017,03,25,10,17,7.30
2017,03,25,10,18,7.30
2017,03,25,10,19,7.30
2017,03,25,10,20,7.30
2017,03,25,10,21,7.30
2017,03,25,10,22,7.40
2017,03,25,10,23,7.40
2017,03,25,10,24,7.50
2017,03,25,10,25,7.50
2017,03,25,10,26,7.60
2017,03,25,10,27,7.60
2017,03,25,10,28,7.60
2017,03,25,10,29,7.60
2017,03,25,10,30,7.70
2017,03,25,10,31,7.70
2017,03,25,10,32,7.70
2017,03,25,10,33,7.70
2017,03,25,10,34,7.70
2017,03,25,10,35,7.80
2017,03,25,10,36,7.80
2017,03,25,10,37,7.80
2017,03,25,10,38,7.90
2017,03,25,10,39,7.90
2017,03,25,10,40,7.90
2017,03,25,10,41,8.00
2017,03,25,10,42,8.00
2017,03,25,10,43,8.10
2017,03,25,10,44,8.10
2017,03,25,10,45,8.10
2017,03,25,10,46,8.20
2017,03,25,10,47,8.30
2017,03,25,10,48,8.30
2017,03,25,10,49,8.30
2017,03,25,10,50,8.30
2017,03,25,10,51,8.40
2017,03,25,10,52,8.40
2017,03,25,10,53,8.40
2017,03,25,10,54,8.40
2017,03,25,10,55,8.50
2017,03,25,10,56,8.50
2017,03,25,10,57,8.50
2017,03,25,10,58,8.60
2017,03,25,10,59,8.70
2017,03,25,11,00,8.80
2017,03,25,11,01,8.90
2017,03,25,11,02,9.00
2017,03,25,11,03,9.10
2017,03,25,11,04,9.20
2017,03,25,11,05,9.30
2017,03,25,11,06,9.30
2017,03,25,11,07,9.30
2017,03,25,11,08,9.30
2017,03,25,11,09,9.30
2017,03,25,11,10,9.40
2017,03,25,11,11,9.40
2017,03,25,11,12,9.60
2017,03,25,11,13,9.60
2017,03,25,11,14,9.70
2017,03,25,11,15,9.70
2017,03,25,11,16,9.70
2017,03,25,11,17,9.70
2017,03,25,11,18,9.70
2017,03,25,11,19,9.80
2017,03,25,11,20,9.80
2017,03,25,11,21,9.80
2017,03,25,11,22,9.90
2017,03,25,11,23,10.00
2017,03,25,11,24,10.00
2017,03,25,11,25,10.00
2017,03,25,11,26,9.90
2017,03,25,11,27,9.80
2017,03,25,11,28,9.70
2017,03,25,11,29,9.70
2017,03,25,11,30,9.60
2017,03,25,11,31,9.60
2017,03,25,11,32,9.70
2017,03,25,11,33,9.80
2017,03,25,11,34,9.80
2017,03,25,11,35,9.80
2017,03,25,11,36,9.80
2017,03,25,11,37,9.80
2017,03,25,11,38,9.80
2017,03,25,11,39,9.90
2017,03,25,11,40,9.90
2017,03,25,11,41,9.80
2017,03,25,11,42,9.80
2017,03,25,11,43,9.80
2017,03,25,11,44,9.90
2017,03,25,11,45,9.90
2017,03,25,11,46,10.00
2017,03,25,11,47,10.10
2017,03,25,11,48,10.10
2017,03,25,11,49,10.20
2017,03,25,11,50,10.20
2017,03,25,11,51,10.20
2017,03,25,11,52,10.20
2017,03,25,11,53,10.20
2017,03,25,11,54,10.40
2017,03,25,11,55,10.40
2017,03,25,11,56,10.50
2017,03,25,11,57,10.60
2017,03,25,11,58,10.70
2017,03,25,11,59,10.70
2017,03,25,12,00,10.70
2017,03,25,12,01,10.70
2017,03,25,12,02,10.70
2017,03,25,12,03,10.70
2017,03,25,12,04,10.70
2017,03,25,12,05,10.60
2017,03,25,12,06,10.50
2017,03,25,12,07,10.40
2017,03,25,12,08,10.30
2017,03,25,12,09,10.30
2017,03,25,12,10,10.20
2017,03,25,12,11,10.20
2017,03,25,12,12,10.20
2017,03,25,12,13,10.20
2017,03,25,12,14,10.20
2017,03,25,12,15,10.20
2017,03,25,12,16,10.30
2017,03,25,12,17,10.30
2017,03,25,12,18,10.30
2017,03,25,12,19,10.20
2017,03,25,12,20,10.10
2017,03,25,12,21,10.00
2017,03,25,12,22,9.90
2017,03,25,12,23,9.80
2017,03,25,12,24,9.80
2017,03,25,12,25,9.80
2017,03,25,12,26,9.90
2017,03,25,12,27,9.90
2017,03,25,12,28,10.00
2017,03,25,12,29,10.10
2017,03,25,12,30,10.20
2017,03,25,12,31,10.30
2017,03,25,12,32,10.30
2017,03,25,12,33,10.30
2017,03,25,12,34,10.20
2017,03,25,12,35,10.20
2017,03,25,12,36,10.00
2017,03,25,12,37,9.90
2017,03,25,12,38,9.90
2017,03,25,12,39,9.80
2017,03,25,12,40,9.80
2017,03,25,12,41,9.80
2017,03,25,12,42,9.80
2017,03,25,12,43,9.80
2017,03,25,12,44,9.80
2017,03,25,12,45,9.80
2017,03,25,12,46,9.80
2017,03,25,12,47,9.80
2017,03,25,12,48,9.80
2017,03,25,12,49,9.80
2017,03,25,12,50,9.80
2017,03,25,12,51,9.80
2017,03,25,12,52,9.90
2017,03,25,12,53,10.10
2017,03,25,12,54,10.30
2017,03,25,12,55,10.40
2017,03,25,12,56,10.50
2017,03,25,12,57,10.60
2017,03,25,12,58,10.60
2017,03,25,12,59,10.60
2017,03,25,13,00,10.60
2017,03,25,13,01,10.60
2017,03,25,13,02,10.50
2017,03,25,13,03,10.40
2017,03,25,13,04,10.40
2017,03,25,13,05,10.40
2017,03,25,13,06,10.40
2017,03,25,13,07,10.40
2017,03,25,13,08,10.40
2017,03,25,13,09,10.50
2017,03,25,13,10,10.50
2017,03,25,13,11,10.50
2017,03,25,13,12,10.40
2017,03,25,13,13,10.30
2017,03,25,13,14,10.30
2017,03,25,13,15,10.20
2017,03,25,13,16,10.20
2017,03,25,13,17,10.30
2017,03,25,13,18,10.30
2017,03,25,13,19,10.40
2017,03,25,13,20,10.50
2017,03,25,13,21,10.40
2017,03,25,13,22,10.40
2017,03,25,13,23,10.30
2017,03,25,13,24,10.20
2017,03,25,13,25,10.10
2017,03,25,13,26,10.10
2017,03,25,13,27,10.10
2017,03,25,13,28,10.10
2017,03,25,13,29,10.20
2017,03,25,13,30,10.30
2017,03,25,13,31,10.50
2017,03,25,13,32,10.50
2017,03,25,13,33,10.60
2017,03,25,13,34,10.60
2017,03,25,13,35,10.60
2017,03,25,13,36,10.60
2017,03,25,13,37,10.50
2017,03,25,13,38,10.50
2017,03,25,13,39,10.30
2017,03,25,13,40,10.30
2017,03,25,13,41,10.20
2017,03,25,13,42,10.20
2017,03,25,13,43,10.20
2017,03,25,13,44,10.10
2017,03,25,13,45,10.10
2017,03,25,13,46,10.20
2017,03,25,13,47,10.20
2017,03,25,13,48,10.20
2017,03,25,13,49,10.10
2017,03,25,13,50,10.10
2017,03,25,13,51,10.10
2017,03,25,13,52,10.20
2017,03,25,13,53,10.20
2017,03,25,13,54,10.20
2017,03,25,13,55,10.20
2017,03,25,13,56,10.30
2017,03,25,13,57,10.30
2017,03,25,13,58,10.50
2017,03,25,13,59,10.50
2017,03,25,14,00,10.60
2017,03,25,14,01,10.60
2017,03,25,14,02,10.50
2017,03,25,14,03,10.40
2017,03,25,14,04,10.40
2017,03,25,14,05,10.40
2017,03,25,14,06,10.30
2017,03,25,14,07,10.30
2017,03,25,14,08,10.30
2017,03,25,14,09,10.20
2017,03,25,14,10,10.10
2017,03,25,14,11,10.00
2017,03,25,14,12,9.80
2017,03,25,14,13,9.80
2017,03,25,14,14,9.70
2017,03,25,14,15,9.80
2017,03,25,14,16,9.80
2017,03,25,14,17,9.70
2017,03,25,14,18,9.70
2017,03,25,14,19,9.60
2017,03,25,14,20,9.60
2017,03,25,14,21,9.60
2017,03,25,14,22,9.60
2017,03,25,14,23,9.60
2017,03,25,14,24,9.60
2017,03,25,14,25,9.50
2017,03,25,14,26,9.50
2017,03,25,14,27,9.40
2017,03,25,14,28,9.40
2017,03,25,14,29,9.30
2017,03,25,14,30,9.40
2017,03,25,14,31,9.40
2017,03,25,14,32,9.40
2017,03,25,14,33,9.40
2017,03,25,14,34,9.40
2017,03,25,14,35,9.40
2017,03,25,14,36,9.40
2017,03,25,14,37,9.40
2017,03,25,14,38,9.40
2017,03,25,14,39,9.40
2017,03,25,14,40,9.40
2017,03,25,14,41,9.40
2017,03,25,14,42,9.40
2017,03,25,14,43,9.40
2017,03,25,14,44,9.40
2017,03,25,14,45,9.40
2017,03,25,14,46,9.40
2017,03,25,14,47,9.40
2017,03,25,14,48,9.40
2017,03,25,14,49,9.50
2017,03,25,14,50,9.60
2017,03,25,14,51,9.80
2017,03,25,14,52,9.90
2017,03,25,14,53,10.00
2017,03,25,14,54,10.10
2017,03,25,14,55,10.10
2017,03,25,14,56,10.20
2017,03,25,14,57,10.20
2017,03,25,14,58,10.20
2017,03,25,14,59,10.20
2017,03,25,15,00,10.20
2017,03,25,15,01,10.10
2017,03,25,15,02,10.00
2017,03,25,15,03,9.90
2017,03,25,15,04,9.90
2017,03,25,15,05,9.80
2017,03,25,15,06,9.80
2017,03,25,15,07,9.80
2017,03,25,15,08,9.80
2017,03,25,15,09,9.80
2017,03,25,15,10,9.80
2017,03,25,15,11,9.70
2017,03,25,15,12,9.70
2017,03,25,15,13,9.70
2017,03,25,15,14,9.70
2017,03,25,15,15,9.70
2017,03,25,15,16,9.70
2017,03,25,15,17,9.70
2017,03,25,15,18,9.60
2017,03,25,15,19,9.60
2017,03,25,15,20,9.60
2017,03,25,15,21,9.50
2017,03,25,15,22,9.40
2017,03,25,15,23,9.40
2017,03,25,15,24,9.40
2017,03,25,15,25,9.40
2017,03,25,15,26,9.40
2017,03,25,15,27,9.40
2017,03,25,15,28,9.40
2017,03,25,15,29,9.40
2017,03,25,15,30,9.40
2017,03,25,15,31,9.40
2017,03,25,15,32,9.30
2017,03,25,15,33,9.30
2017,03,25,15,34,9.30
2017,03,25,15,35,9.30
2017,03,25,15,36,9.20
2017,03,25,15,37,9.20
2017,03,25,15,38,9.20
2017,03,25,15,39,9.20
2017,03,25,15,40,9.20
2017,03,25,15,41,9.20
2017,03,25,15,42,9.30
2017,03,25,15,43,9.30
2017,03,25,15,44,9.30
2017,03,25,15,45,9.30
2017,03,25,15,46,9.30
2017,03,25,15,47,9.30
2017,03,25,15,48,9.20
2017,03,25,15,49,9.20
2017,03,25,15,50,9.20
2017,03,25,15,51,9.20
2017,03,25,15,52,9.20
2017,03,25,15,53,9.20
2017,03,25,15,54,9.20
2017,03,25,15,55,9.20
2017,03,25,15,56,9.20
2017,03,25,15,57,9.20
2017,03,25,15,58,9.20
2017,03,25,15,59,9.20
2017,03,25,16,00,9.20
2017,03,25,16,01,9.20
2017,03,25,16,02,9.20
2017,03,25,16,03,9.20
2017,03,25,16,04,9.20
2017,03,25,16,05,9.20
2017,03,25,16,06,9.20
2017,03,25,16,07,9.20
2017,03,25,16,08,9.20
2017,03,25,16,09,9.20
2017,03,25,16,10,9.20
2017,03,25,16,11,9.20
2017,03,25,16,12,9.20
2017,03,25,16,13,9.20
2017,03,25,16,14,9.20
2017,03,25,16,15,9.20
2017,03,25,16,16,9.20
2017,03,25,16,17,9.20
2017,03,25,16,18,9.20
2017,03,25,16,19,9.20
2017,03,25,16,20,9.20
2017,03,25,16,21,9.30
2017,03,25,16,22,9.30
2017,03,25,16,23,9.30
2017,03,25,16,24,9.30
2017,03,25,16,25,9.40
2017,03,25,16,26,9.40
2017,03,25,16,27,9.40
2017,03,25,16,28,9.50
2017,03,25,16,29,9.50
2017,03,25,16,30,9.60
2017,03,25,16,31,9.70
2017,03,25,16,32,9.80
2017,03,25,16,33,9.80
2017,03,25,16,34,9.80
2017,03,25,16,35,9.80
2017,03,25,16,36,9.80
2017,03,25,16,37,9.70
2017,03,25,16,38,9.70
2017,03,25,16,39,9.70
2017,03,25,16,40,9.60
2017,03,25,16,41,9.60
2017,03,25,16,42,9.50
2017,03,25,16,43,9.50
2017,03,25,16,44,9.50
2017,03,25,16,45,9.50
2017,03,25,16,46,9.40
2017,03,25,16,47,9.40
2017,03,25,16,48,9.30
2017,03,25,16,49,9.30
2017,03,25,16,50,9.30
2017,03,25,16,51,9.30
2017,03,25,16,52,9.30
2017,03,25,16,53,9.30
2017,03,25,16,54,9.30
2017,03,25,16,55,9.20
2017,03,25,16,56,9.20
2017,03,25,16,57,9.20
2017,03,25,16,58,9.10
2017,03,25,16,59,9.10
2017,03,25,17,00,9.10
2017,03,25,17,01,9.10
2017,03,25,17,02,9.10
2017,03,25,17,03,9.10
2017,03,25,17,04,9.10
2017,03,25,17,05,9.00
2017,03,25,17,06,9.00
2017,03,25,17,07,9.00
2017,03,25,17,08,8.90
2017,03,25,17,09,8.90
2017,03,25,17,10,8.90
2017,03,25,17,11,8.90
2017,03,25,17,12,8.90
2017,03,25,17,13,8.80
2017,03,25,17,14,8.80
2017,03,25,17,15,8.80
2017,03,25,17,16,8.80
2017,03,25,17,17,8.70
2017,03,25,17,18,8.70
2017,03,25,17,19,8.70
2017,03,25,17,20,8.70
2017,03,25,17,21,8.70
2017,03,25,17,22,8.70
2017,03,25,17,23,8.70
2017,03,25,17,24,8.80
2017,03,25,17,25,8.80
2017,03,25,17,26,8.80
2017,03,25,17,27,8.80
2017,03,25,17,28,8.80
2017,03,25,17,29,8.80
2017,03,25,17,30,8.80
2017,03,25,17,31,8.80
2017,03,25,17,32,8.90
2017,03,25,17,33,8.90
2017,03,25,17,34,8.90
2017,03,25,17,35,8.90
2017,03,25,17,36,8.90
2017,03,25,17,37,8.90
2017,03,25,17,38,9.00
2017,03,25,17,39,9.00
2017,03,25,17,40,9.00
2017,03,25,17,41,9.00
2017,03,25,17,42,9.00
2017,03,25,17,43,9.10
2017,03,25,17,44,9.10
2017,03,25,17,45,9.10
2017,03,25,17,46,9.10
2017,03,25,17,47,9.10
2017,03,25,17,48,9.10
2017,03,25,17,49,9.00
2017,03,25,17,50,9.00
2017,03,25,17,51,9.00
2017,03,25,17,52,9.00
2017,03,25,17,53,8.90
2017,03,25,17,54,8.90
2017,03,25,17,55,8.90
2017,03,25,17,56,8.90
2017,03,25,17,57,8.80
2017,03,25,17,58,8.80
2017,03,25,17,59,8.80
2017,03,25,18,00,8.80
2017,03,25,18,01,8.80
2017,03,25,18,02,8.80
2017,03,25,18,03,8.80
2017,03,25,18,04,8.80
2017,03,25,18,05,8.80
2017,03,25,18,06,8.80
2017,03,25,18,07,8.80
2017,03,25,18,08,8.80
2017,03,25,18,09,8.80
2017,03,25,18,10,8.80
2017,03,25,18,11,8.80
2017,03,25,18,12,8.80
2017,03,25,18,13,8.80
2017,03,25,18,14,8.80
2017,03,25,18,15,8.80
2017,03,25,18,16,8.80
2017,03,25,18,17,8.80
2017,03,25,18,18,8.80
2017,03,25,18,19,8.80
2017,03,25,18,20,8.80
2017,03,25,18,21,8.80
2017,03,25,18,22,8.80
2017,03,25,18,23,8.80
2017,03,25,18,24,8.80
2017,03,25,18,25,8.80
2017,03,25,18,26,8.80
2017,03,25,18,27,8.80
2017,03,25,18,28,8.80
2017,03,25,18,29,8.80
2017,03,25,18,30,8.80
2017,03,25,18,31,8.80
2017,03,25,18,32,8.80
2017,03,25,18,33,8.80
2017,03,25,18,34,8.80
2017,03,25,18,35,8.80
2017,03,25,18,36,8.80
2017,03,25,18,37,8.80
2017,03,25,18,38,8.80
2017,03,25,18,39,8.80
2017,03,25,18,40,8.70
2017,03,25,18,41,8.70
2017,03,25,18,42,8.70
2017,03,25,18,43,8.70
2017,03,25,18,44,8.70
2017,03,25,18,45,8.70
2017,03,25,18,46,8.70
2017,03,25,18,47,8.70
2017,03,25,18,48,8.70
2017,03,25,18,49,8.70
2017,03,25,18,50,8.70
2017,03,25,18,51,8.70
2017,03,25,18,52,8.70
2017,03,25,18,53,8.70
2017,03,25,18,54,8.70
2017,03,25,18,55,8.70
2017,03,25,18,56,8.70
2017,03,25,18,57,8.70
2017,03,25,18,58,8.70
2017,03,25,18,59,8.60
2017,03,25,19,00,8.60
2017,03,25,19,01,8.60
2017,03,25,19,02,8.60
2017,03,25,19,03,8.60
2017,03,25,19,04,8.60
2017,03,25,19,05,8.60
2017,03,25,19,06,8.60
2017,03,25,19,07,8.50
2017,03,25,19,08,8.50
2017,03,25,19,09,8.50
2017,03,25,19,10,8.50
2017,03,25,19,11,8.40
2017,03,25,19,12,8.40
2017,03,25,19,13,8.40
2017,03,25,19,14,8.40
2017,03,25,19,15,8.40
2017,03,25,19,16,8.40
2017,03,25,19,17,8.30
2017,03,25,19,18,8.30
2017,03,25,19,19,8.30
2017,03,25,19,20,8.30
2017,03,25,19,21,8.30
2017,03,25,19,22,8.30
2017,03,25,19,23,8.30
2017,03,25,19,24,8.30
2017,03,25,19,25,8.30
2017,03,25,19,26,8.30
2017,03,25,19,27,8.20
2017,03,25,19,28,8.20
2017,03,25,19,29,8.20
2017,03,25,19,30,8.20
2017,03,25,19,31,8.20
2017,03,25,19,32,8.20
2017,03,25,19,33,8.20
2017,03,25,19,34,8.20
2017,03,25,19,35,8.10
2017,03,25,19,36,8.10
2017,03,25,19,37,8.10
2017,03,25,19,38,8.10
2017,03,25,19,39,8.10
2017,03,25,19,40,8.10
2017,03,25,19,41,8.10
2017,03,25,19,42,8.10
2017,03,25,19,43,8.10
2017,03,25,19,44,8.10
2017,03,25,19,45,8.10
2017,03,25,19,46,8.10
2017,03,25,19,47,8.10
2017,03,25,19,48,8.10
2017,03,25,19,49,8.00
2017,03,25,19,50,8.00
2017,03,25,19,51,8.00
2017,03,25,19,52,8.00
2017,03,25,19,53,8.00
2017,03,25,19,54,8.00
2017,03,25,19,55,8.00
2017,03,25,19,56,8.00
2017,03,25,19,57,7.90
2017,03,25,19,58,8.00
2017,03,25,19,59,7.90
2017,03,25,20,00,7.90
2017,03,25,20,01,7.90
2017,03,25,20,02,7.90
2017,03,25,20,03,7.90
2017,03,25,20,04,7.90
2017,03,25,20,05,7.90
2017,03,25,20,06,7.90
2017,03,25,20,07,7.90
2017,03,25,20,08,7.80
2017,03,25,20,09,7.80
2017,03,25,20,10,7.80
2017,03,25,20,11,7.90
2017,03,25,20,12,7.80
2017,03,25,20,13,7.80
2017,03,25,20,14,7.80
2017,03,25,20,15,7.80
2017,03,25,20,16,7.80
2017,03,25,20,17,7.80
2017,03,25,20,18,7.80
2017,03,25,20,19,7.80
2017,03,25,20,20,7.80
2017,03,25,20,21,7.80
2017,03,25,20,22,7.80
2017,03,25,20,23,7.80
2017,03,25,20,24,7.80
2017,03,25,20,25,7.70
2017,03,25,20,26,7.70
2017,03,25,20,27,7.70
2017,03,25,20,28,7.70
2017,03,25,20,29,7.70
2017,03,25,20,30,7.70
2017,03,25,20,31,7.70
2017,03,25,20,32,7.60
2017,03,25,20,33,7.60
2017,03,25,20,34,7.60
2017,03,25,20,35,7.60
2017,03,25,20,36,7.60
2017,03,25,20,37,7.60
2017,03,25,20,38,7.60
2017,03,25,20,39,7.60
2017,03,25,20,40,7.60
2017,03,25,20,41,7.60
2017,03,25,20,42,7.60
2017,03,25,20,43,7.50
2017,03,25,20,44,7.50
2017,03,25,20,45,7.50
2017,03,25,20,46,7.50
2017,03,25,20,47,7.40
2017,03,25,20,48,7.40
2017,03,25,20,49,7.40
2017,03,25,20,50,7.40
2017,03,25,20,51,7.40
2017,03,25,20,52,7.30
2017,03,25,20,53,7.30
2017,03,25,20,54,7.30
2017,03,25,20,55,7.30
2017,03,25,20,56,7.30
2017,03,25,20,57,7.30
2017,03,25,20,58,7.30
2017,03,25,20,59,7.30
2017,03,25,21,00,7.20
2017,03,25,21,01,7.20
2017,03,25,21,02,7.20
2017,03,25,21,03,7.20
2017,03,25,21,04,7.20
2017,03,25,21,05,7.20
2017,03,25,21,06,7.20
2017,03,25,21,07,7.10
2017,03,25,21,08,7.10
2017,03,25,21,09,7.10
2017,03,25,21,10,7.10
2017,03,25,21,11,7.10
2017,03,25,21,12,7.00
2017,03,25,21,13,7.00
2017,03,25,21,14,7.00
2017,03,25,21,15,7.00
2017,03,25,21,16,7.00
2017,03,25,21,17,6.90
2017,03,25,21,18,6.90
2017,03,25,21,19,6.90
2017,03,25,21,20,6.90
2017,03,25,21,21,6.90
2017,03,25,21,22,6.80
2017,03,25,21,23,6.80
2017,03,25,21,24,6.80
2017,03,25,21,25,6.80
2017,03,25,21,26,6.80
2017,03,25,21,27,6.80
2017,03,25,21,28,6.70
2017,03,25,21,29,6.70
2017,03,25,21,30,6.70
2017,03,25,21,31,6.70
2017,03,25,21,32,6.70
2017,03,25,21,33,6.70
2017,03,25,21,34,6.70
2017,03,25,21,35,6.70
2017,03,25,21,36,6.70
2017,03,25,21,37,6.60
2017,03,25,21,38,6.60
2017,03,25,21,39,6.60
2017,03,25,21,40,6.60